Location: Unspecified
(50.1700°N, 6.8600°E)
Time: 08:16:39
(UTC+00:00)

Cosmos 2297 Rocket - Pass Details

Date: 24 January 2019
Orbit: 840 x 843 km, 71.0° (Epoch: 19 April)

Event Time Altitude Azimuth Distance (km) Brightness Sun altitude
Exits shadow 06:04:41 - 328° (NNW) 2,804 4.5 -11.6°
Reaches altitude 10° 06:05:34 10° 327° (NNW) 2,467 4.2 -11.4°
Maximum altitude 06:11:12 71° 245° (WSW) 890 2.2 -10.6°
Drops below altitude 10° 06:16:47 10° 163° (SSE) 2,451 5.1 -9.7°
Sets 06:19:13 0° 161° (SSE) 3,382 5.9 -9.3°
